Weather History for KCOF - March, 2013

Change the Weather History Date:

Saturday, March 16, 2013

  Actual Average Record
Temperature  
Mean Temperature 62 °F -  
Max Temperature 73 °F 74 °F 85 °F (2008)
Min Temperature 52 °F 61 °F 50 °F (1999)
Degree Days  
Heating Degree Days 3    
Growing Degree Days 12 (Base 50)    
Moisture  
Dew Point 50 °F    
Average Humidity 61    
Maximum Humidity 80    
Minimum Humidity 37    
Precipitation  
Precipitation 0.00 in - - ()
Sea Level Pressure  
Sea Level Pressure 30.16 in    
Wind  
Wind Speed 9 mph (SSW)    
Max Wind Speed 18 mph    
Max Gust Speed -    
Visibility 10 miles    
Events      
Averages and records for this station are not official NWS values.
T = Trace of Precipitation, MM = Missing Value Source: NWS Daily Summary

Daily Weather History Graph

Daily Weather History Graph

Search for Another Location

Airport or City:

Trip Planner

Search our weather history database for the weather conditions in past years. The results will help you decide how hot, cold, wet, or windy it might be!

Date:

Astronomy

Mar. 16, 2013 Rise Set
Actual Time 7:30 AM EDT 7:31 PM EDT
Civil Twilight 7:07 AM EDT 7:55 PM EDT
Nautical Twilight 6:39 AM EDT 8:22 PM EDT
Astronomical Twilight 6:12 AM EDT 8:49 PM EDT
Moon 10:24 AM EDT (3/16) No Moon Set
Length of Visible Light 12h 48m
Length of Day
12h 01m
Waxing Crescent, 23% of the Moon is Illuminated
Mar 16
Waxing Crescent
Mar 19
First Quarter
Mar 27
Full
Apr 3
Last Quarter
Apr 10
New

Hourly Weather History & Observations

Time (EDT) Temp. Dew Point Humidity Pressure Visibility Wind Dir Wind Speed Gust Speed Precip Events Conditions
12:58 AM 55.6 °F 48.6 °F 77% 30.21 in 10.0 mi South 5.8 mph - N/A   Clear
1:58 AM 54.5 °F 48.4 °F 80% 30.21 in 10.0 mi WSW 6.9 mph - N/A   Clear
2:58 AM 54.1 °F 45.5 °F 73% 30.19 in 10.0 mi SW 5.8 mph - N/A   Clear
3:58 AM 54.5 °F 46.8 °F 75% 30.19 in 10.0 mi WSW 8.1 mph - N/A   Clear
4:58 AM 55.2 °F 47.5 °F 75% 30.17 in 10.0 mi SW 9.2 mph - N/A   Clear
5:58 AM 54.0 °F 47.1 °F 78% 30.18 in 10.0 mi West 6.9 mph - N/A   Clear
6:58 AM 52.7 °F 45.9 °F 78% 30.19 in 10.0 mi WSW 6.9 mph - N/A   Clear
7:58 AM 53.6 °F 46.0 °F 76% 30.22 in 10.0 mi WSW 5.8 mph - N/A   Clear
8:58 AM 58.6 °F 45.1 °F 61% 30.22 in 10.0 mi West 5.8 mph - N/A   Clear
9:58 AM 63.9 °F 37.2 °F 37% 30.22 in 10.0 mi NW 4.6 mph - N/A   Clear
10:58 AM 66.2 °F 45.1 °F 47% 30.22 in 10.0 mi SW 5.8 mph - N/A   Clear
11:03 AM 68.0 °F 48.2 °F 49% 30.20 in 10.0 mi SW 8.1 mph - N/A   Light Drizzle
11:12 AM 68.0 °F 48.2 °F 49% 30.20 in 10.0 mi WSW 10.4 mph - N/A   Clear
11:58 AM 69.3 °F 49.3 °F 49% 30.21 in 10.0 mi SW 6.9 mph - N/A   Clear
12:58 PM 72.7 °F 44.8 °F 37% 30.18 in 10.0 mi SW 5.8 mph - N/A   Clear
1:44 PM 71.6 °F 55.4 °F 57% 30.14 in 10.0 mi SE 12.7 mph - N/A   Light Drizzle
1:53 PM 71.6 °F 53.6 °F 53% 30.14 in 10.0 mi SE 12.7 mph - N/A   Clear
1:58 PM 71.2 °F 53.6 °F 54% 30.16 in 10.0 mi SE 12.7 mph - N/A   Clear
2:58 PM 72.0 °F 54.7 °F 54% 30.13 in 10.0 mi SE 13.8 mph - N/A   Clear
3:58 PM 71.6 °F 54.1 °F 54% 30.11 in 10.0 mi SE 16.1 mph - N/A   Clear
4:58 PM 70.7 °F 47.5 °F 44% 30.09 in 10.0 mi SE 17.3 mph - N/A   Clear
5:58 PM 70.3 °F 51.1 °F 50% 30.09 in 10.0 mi SSE 16.1 mph - N/A   Clear
6:58 PM 68.5 °F 54.3 °F 60% 30.09 in 10.0 mi SSE 18.4 mph - N/A   Clear
7:58 PM 67.5 °F 55.8 °F 66% 30.09 in 10.0 mi SSE 16.1 mph - N/A   Clear
8:58 PM 66.7 °F 56.1 °F 69% 30.11 in 10.0 mi South 15.0 mph - N/A   Clear
9:58 PM 66.2 °F 52.3 °F 61% 30.12 in 10.0 mi South 12.7 mph - N/A   Clear
10:58 PM 65.3 °F 52.2 °F 62% 30.13 in 10.0 mi South 15.0 mph - N/A   Clear
11:10 PM 64.4 °F 53.6 °F 68% 30.12 in 10.0 mi SW 15.0 mph - N/A   Clear
11:58 PM 63.0 °F 52.7 °F 69% 30.14 in 10.0 mi SSW 9.2 mph - N/A   Clear